Regional Weather Roundup
Issued by NWS Mobile, AL

Home | Current Version | Previous Version | Text Only | Print | Product List | Glossary On
Versions: 1 2 3 4 5 6 7 8 9 10 11 12 13 14 15 16 17 18 19 20 21 22 23 24 25 26
000
ASUS44 KMOB 270812
RWRMOB
REGIONAL WEATHER ROUNDUP
NATIONAL WEATHER SERVICE MOBILE AL
300 AM CDT SAT AUG 27 2016

NOTE: "FAIR" INDICATES FEW OR NO CLOUDS BELOW 12,000 FEET WITH NO
      SIGNIFICANT WEATHER AND/OR OBSTRUCTIONS TO VISIBILITY.

  * THESE STATIONS ARE PART OF THE UNIVERSITY OF SOUTH ALABAMA
    MESONET AND ARE NOT UNDER NWS OR FAA QUALITY CONTROL.

ALZ061>064-270900-
COASTAL ALABAMA

CITY           SKY/WX    TMP DP  RH WIND       PRES   REMARKS
MOBILE REG APT CLEAR     74  71  91 CALM      30.00R
BROOKLEY FIELD CLEAR     76  75  97 NW5       30.00R
USA CAMPUS*    NOT AVBL
DOG RIVER*     NOT AVBL


CITY           SKY/WX    TMP DP  RH WIND       PRES   REMARKS
MOUNT VERNON*  NOT AVBL
SARALAND*      NOT AVBL
BAY MINETTE*   NOT AVBL
LOXLEY*        NOT AVBL
ROBERTSDALE*   NOT AVBL
FAIRHOPE*      NOT AVBL
ELBERTA*       NOT AVBL
FOLEY*         NOT AVBL
GRAND BAY*     NOT AVBL
DAUPHIN ISLND* NOT AVBL
BON SCOUR NWR* NOT AVBL
GULF SHORES    CLEAR     74  74 100 N3        29.97S

$$

ALZ051>060-270900-
INTERIOR SOUTHWEST AND SOUTH CENTRAL ALABAMA

CITY           SKY/WX    TMP DP  RH WIND       PRES   REMARKS
GREENVILLE     CLEAR     73  69  87 CALM      30.01S
EVERGREEN      CLEAR     71  69  93 CALM      30.01S
CASTLEBERRY*   NOT AVBL
ATMORE*        NOT AVBL
DIXIE*         NOT AVBL
ANDALUSIA/OPP  CLEAR     76  70  82 CALM      29.99F
ANDALUSIA*     NOT AVBL
FLORALA APT    CLEAR     73  69  87 CALM      30.01S
FLORALA*       NOT AVBL

$$

FLZ001>006-270900-
WESTERN FLORIDA PANHANDLE

CITY           SKY/WX    TMP DP  RH WIND       PRES   REMARKS
PENSACOLA      CLEAR     79  75  87 N5        29.97R
NAS PENSACOLA  CLEAR     77  75  93 N3        29.96S
MILTON         CLEAR     72  72 100 N5        29.98S
WHTNG S FIELD  NOT AVBL


CITY           SKY/WX    TMP DP  RH WIND       PRES   REMARKS
WALNUT HILL*   NOT AVBL
JAY*           NOT AVBL
DUKE FIELD     CLEAR     72  70  94 NE3       29.97S
CRESTVIEW      CLEAR     70  68  93 CALM      29.99S
VALPARAISO     CLEAR     77  73  88 NE6       29.97S
DESTIN         CLEAR     82  76  81 E6        29.96S

$$

MSZ076-079-270900-
INTERIOR SOUTHEAST MISSISSIPPI

CITY           SKY/WX    TMP DP  RH WIND       PRES   REMARKS
LEAKESVILLE*   NOT AVBL
AGRICOLA*      NOT AVBL

$$

MARINE OBSERVATIONS

STATION/POSITION TIME  TEMP    WIND        PRES    WAVE
                       AIR SEA DIR/SP/G            HT/PER
                 (UTC) (F)     (DEG/KT/KT) (MB)    (FT/S)
PASCAGOULA       0700   81      10/  4/  5 1014.8F
PETIT BOIS ISLND 0700   83     110/  4/  5 1015.4F
GRAND BAY        0600   80     360/  3     1016.0F
KATRINA CUT      0700   84      90/  7     1015.6F
CEDAR POINT      0700   84     100/  5     1014.6
E DAUPHIN ISLAND 0700   84      80/  6/  7 1014.4F
MIDDLE BAY LIGHT 0700   83      70/  7     1014.6F
USCG MOBILE BAY  0700   79 88  340/  4/  5 1015.6F
STATE DOCKS      0700   80 88              1015.1F
MEAHER PARK      0700   78      40/  3     1014.9F
WEEKS BAY        0600   75                   N/A
FORT MORGAN      0700   83      80/  5/  6 1014.1F
12 S ORANGE BCH  0750   85 86   90/  8/ 10 1014.4R   2/ 6
PENSACOLA BAY    0700   83 88   30/  4/  5 1014.8F
64 S DAUPHIN ISL 0700   85 86  100/ 12/ 14 1013.9F
67 S FORT MORGAN 0730   84     100/ 16     1014.2S

$$

SELECTED LOCATIONS ACROSS THE REGION

CITY           SKY/WX    TMP DP  RH WIND       PRES   REMARKS
NEW ORLEANS    PTCLDY    82  76  81 NE6       29.95F
GULFPORT       MOCLDY    77  76  96 N3        29.96F
PASCAGOULA AP  CLEAR     75  75 100 N3        29.97F
PASCAGOULA*    NOT AVBL
HATTIESBURG    MOCLDY    75  72  90 CALM      30.01S
LAUREL         CLEAR     72  68  88 CALM      30.02S
MERIDIAN       CLEAR     73  70  90 CALM      30.01F
JACKSON        CLEAR     76  73  91 CALM      30.00F
MONTGOMERY     CLEAR     76  69  79 CALM      30.01S
TROY           CLEAR     72  70  93 CALM      30.02F
KINSTON*       NOT AVBL
GENEVA*        NOT AVBL
ASHFORD*       NOT AVBL
DOTHAN         CLEAR     75  72  90 E7        30.03F
PANAMA CITY    CLEAR     76  71  85 NE5       29.96S

$$





USA.gov is the U.S. government's official web portal to all federal, state and local government web resources and services.